Location: Brantley
(31.5822°N, 86.2569°W)
Time: 00:33:01
(UTC+00:00)

Vanguard 2 - Pass Details

Date: 23 February 2026
Orbit: 553 x 2896 km, 32.9° (Epoch: 9 March)

Event Time Altitude Azimuth Distance (km) Brightness Sun altitude
Rises 13:33:38 0° 281° (WNW) 3,379 10.2 14.5°
Reaches altitude 10° 13:36:29 10° 280° (W) 2,204 9.3 15.1°
Maximum altitude 13:41:15 72° 196° (SSW) 620 7.4 16.0°
Drops below altitude 10° 13:45:10 10° 112° (ESE) 1,817 12.3 16.8°
Sets 13:47:19 0° 110° (ESE) 2,726 12.1 17.2°
